This demonstration page uses our WeatherBlox Daily Observations layout. Learn more.

Hourly Observations for December 10, 2017

Temp ( °F °C ) Dew Point ( °F °C ) Humidity (%) Winds ( mph kmh ) Pressure ( in mb ) Visibility ( mi km ) Precip ( " mm )
12:15 am 00:15 Clear 34 1.1 16 -8.9 48 48 WNW 10 17 30.27 1025 10 16.09344 0 0
12:35 am 00:35 Clear 37 2.5 16 -8.7 44 44 WNW 10 17 30.24 1024 10 16.09344 0 0
12:55 am 00:55 Clear 33 0.8 16 -8.7 49 49 WNW 9 15 30.24 1024 10 16.09344 0 0
1:15 am 01:15 Clear 35 1.5 16 -8.9 46 46 NW 9 15 30.24 1024 10 16.09344 0 0
1:35 am 01:35 Clear 36 2.3 16 -8.7 44 44 NW 12 19 30.24 1024 10 16.09344 0 0
1:55 am 01:55 Clear 37 2.5 16 -8.8 43 43 WNW 14 22 30.24 1024 10 16.09344 0 0
2:15 am 02:15 Clear 37 2.5 16 -9 43 43 WNW 14 22 30.24 1024 10 16.09344 0 0
2:35 am 02:35 Clear 36 2.1 15 -9.2 43 43 WNW 13 20 30.24 1024 10 16.09344 0 0
2:55 am 02:55 Clear 35 1.4 15 -9.2 46 46 WNW 13 20 30.27 1025 10 16.09344 0 0
3:15 am 03:15 Clear 34 1 15 -9.4 46 46 WNW 13 20 30.27 1025 10 16.09344 0 0
3:35 am 03:35 Clear 34 1 15 -9.3 47 47 WNW 12 19 30.27 1025 10 16.09344 0 0
3:55 am 03:55 Clear 33 0.8 15 -9.3 47 47 WNW 10 17 30.27 1025 10 16.09344 0 0
4:15 am 04:15 Clear 33 0.6 15 -9.4 47 47 WNW 13 20 30.27 1025 10 16.09344 0 0
4:35 am 04:35 Clear 33 0.6 15 -9.4 47 47 WNW 12 19 30.27 1025 10 16.09344 0 0
4:55 am 04:55 Clear 34 1.1 15 -9.6 45 45 WNW 13 20 30.27 1025 10 16.09344 0 0
5:15 am 05:15 Clear 34 1.1 14 -9.8 44 44 WNW 14 22 30.27 1025 10 16.09344 0 0
5:35 am 05:35 Clear 35 1.8 14 -10 42 42 WNW 17 28 30.27 1025 10 16.09344 0 0
5:55 am 05:55 Clear 36 2 14 -10.2 40 40 WNW 17 28 30.3 1026 10 16.09344 0 0
6:15 am 06:15 Clear 34 1.2 14 -10 43 43 WNW 14 22 30.3 1026 10 16.09344 0 0
6:35 am 06:35 Clear 34 0.9 14 -10 44 44 WNW 14 22 30.3 1026 10 16.09344 0 0
6:55 am 06:55 Clear 36 2.2 13 -10.5 39 39 NW 17 28 30.3 1026 10 16.09344 0 0
7:15 am 07:15 Clear 36 2.2 13 -10.6 39 39 NW 16 26 30.3 1026 10 16.09344 0 0
7:35 am 07:35 Clear 35 1.8 13 -10.7 39 39 NW 13 20 30.3 1026 10 16.09344 0 0
7:55 am 07:55 Sunny 34 1 13 -10.5 42 42 NW 12 19 30.3 1026 10 16.09344 0 0
8:15 am 08:15 Sunny 34 1.2 13 -10.3 42 42 WNW 12 19 30.3 1026 10 16.09344 0 0
8:35 am 08:35 Sunny 36 2.1 14 -10.2 40 40 WNW 13 20 30.33 1027 10 16.09344 0 0
8:55 am 08:55 Sunny 37 2.7 14 -10.2 38 38 WNW 16 26 30.3 1026 10 16.09344 0 0
9:15 am 09:15 Sunny 39 3.8 14 -10.2 36 36 WNW 15 24 30.3 1026 10 16.09344 0 0
9:35 am 09:35 Sunny 42 5.5 14 -10.1 32 32 WNW 18 30 30.3 1026 10 16.09344 0 0
9:55 am 09:55 Sunny 44 6.9 14 -10 29 29 WNW 16 26 30.27 1025 10 16.09344 0 0
10:15 am 10:15 Sunny 46 7.8 14 -10.2 27 27 WNW 22 35 30.27 1025 10 16.09344 0 0
10:35 am 10:35 Sunny 47 8.5 14 -10.1 26 26 WNW 16 26 30.27 1025 10 16.09344 0 0
10:55 am 10:55 Sunny 50 10.2 14 -10.1 23 23 WNW 18 30 30.24 1024 10 16.09344 0 0
11:15 am 11:15 Sunny 53 11.5 14 -10.2 21 21 WNW 18 30 30.24 1024 10 16.09344 0 0
11:35 am 11:35 Sunny 54 12.4 14 -10.2 20 20 WNW 17 28 30.21 1023 10 16.09344 0 0
11:55 am 11:55 Sunny 56 13.3 13 -10.5 18 18 WNW 18 30 30.21 1023 10 16.09344 0 0
12:15 pm 12:15 Sunny 58 14.2 13 -10.3 17 17 WNW 16 26 30.21 1023 10 16.09344 0 0
12:35 pm 12:35 Sunny 59 15 13 -10.6 16 16 WNW 16 26 30.15 1021 10 16.09344 0 0
12:55 pm 12:55 Sunny 61 16.1 13 -10.8 15 15 WNW 15 24 30.15 1021 10 16.09344 0 0
1:15 pm 13:15 Sunny 62 16.6 12 -11 14 14 WNW 17 28 30.15 1021 10 16.09344 0 0
1:35 pm 13:35 Sunny 63 17.4 12 -11.1 13 13 WNW 18 30 30.15 1021 10 16.09344 0 0
1:55 pm 13:55 Sunny 65 18.2 12 -11.1 13 13 WNW 18 30 30.09 1019 10 16.09344 0 0
2:15 pm 14:15 Sunny 64 18 12 -11 13 13 WNW 17 28 30.09 1019 10 16.09344 0 0
2:35 pm 14:35 Sunny 62 16.9 11 -11.4 13 13 WNW 15 24 30.12 1020 10 16.09344 0 0
2:55 pm 14:55 Sunny 65 18.3 13 -10.6 13 13 W 16 26 30.09 1019 10 16.09344 0 0
3:15 pm 15:15 Sunny 65 18.6 12 -11.1 12 12 WNW 15 24 30.09 1019 10 16.09344 0 0
3:35 pm 15:35 Sunny 65 18.5 13 -10.5 13 13 W 16 26 30.09 1019 10 16.09344 0 0
3:55 pm 15:55 Sunny 64 17.7 13 -10.5 14 14 W 12 19 30.12 1020 10 16.09344 0 0
4:15 pm 16:15 Sunny 62 16.7 13 -10.8 14 14 W 14 22 30.12 1020 10 16.09344 0 0
4:35 pm 16:35 Sunny 60 15.4 12 -11 15 15 W 12 19 30.12 1020 10 16.09344 0 0
4:55 pm 16:55 Sunny 57 13.7 13 -10.7 17 17 W 12 19 30.15 1021 10 16.09344 0 0
5:15 pm 17:15 Clear 51 10.3 13 -10.6 22 22 W 10 17 30.18 1022 10 16.09344 0 0
5:35 pm 17:35 Clear 47 8.6 13 -10.6 25 25 W 12 19 30.18 1022 10 16.09344 0 0
5:55 pm 17:55 Clear 45 7 12 -11 27 27 W 12 19 30.21 1023 10 16.09344 0 0
6:15 pm 18:15 Clear 47 8.2 13 -10.5 26 26 W 12 19 30.21 1023 10 16.09344 0 0
6:35 pm 18:35 Clear 42 5.7 13 -10.6 30 30 W 9 15 30.21 1023 10 16.09344 0 0
6:55 pm 18:55 Clear 41 5.2 13 -10.7 31 31 W 10 17 30.21 1023 10 16.09344 0 0
7:15 pm 19:15 Clear 42 5.3 13 -10.6 31 31 W 12 19 30.21 1023 10 16.09344 0 0
7:35 pm 19:35 Clear 40 4.5 13 -10.6 33 33 W 10 17 30.24 1024 10 16.09344 0 0
7:55 pm 19:55 Clear 37 3 13 -10.4 37 37 WNW 9 15 30.21 1023 10 16.09344 0 0
8:15 pm 20:15 Clear 36 2.4 13 -10.5 38 38 NW 8 13 30.21 1023 10 16.09344 0 0
8:35 pm 20:35 Clear 32 0.2 13 -10.8 44 44 NNW 7 11 30.24 1024 10 16.09344 0 0
8:55 pm 20:55 Clear 30 -0.9 13 -10.7 48 48 WNW 3 6 30.24 1024 10 16.09344 0 0
9:15 pm 21:15 Clear 29 -1.5 13 -10.6 50 50 NW 10 17 30.27 1025 10 16.09344 0 0
9:35 pm 21:35 Clear 30 -0.9 13 -10.5 49 49 WNW 10 17 30.24 1024 10 16.09344 0 0
9:55 pm 21:55 Clear 32 -0.1 14 -10.2 47 47 W 8 13 30.24 1024 10 16.09344 0 0
10:15 pm 22:15 Clear 31 -0.6 14 -10.2 49 49 WNW 10 17 30.24 1024 10 16.09344 0 0
10:35 pm 22:35 Clear 30 -1.1 13 -10.6 49 49 WNW 9 15 30.24 1024 10 16.09344 0 0
10:55 pm 22:55 Clear 29 -1.4 13 -10.7 50 50 WNW 6 9 30.27 1025 10 16.09344 0 0
11:15 pm 23:15 Clear 30 -1 13 -10.5 49 49 W 5 7 30.24 1024 10 16.09344 0 0
11:35 pm 23:35 Clear 28 -2.1 13 -10.7 52 52 WNW 6 9 30.24 1024 10 16.09344 0 0
11:55 pm 23:55 Clear 29 -1.7 13 -10.3 52 52 WNW 10 17 30.24 1024 10 16.09344 0 0

Powered by AerisWeather